Preview of NWS' New Version of Forecast
This preview is not operational and should not be used for support decisions.

Regional Weather Roundup (RWR)

Issued by National Weather Service (NWS)

                            
000
ASUS42 KTBW 210518
RWRFL 
FLORIDA REGIONAL WEATHER ROUNDUP
NATIONAL WEATHER SERVICE TAMPA BAY RUSKIN FL
100 AM EDT SUN JUL 21 2019

NOTE: "FAIR" INDICATES FEW OR NO CLOUDS BELOW 12,000 FEET WITH NO
SIGNIFICANT WEATHER AND/OR OBSTRUCTIONS TO VISIBILITY.

FLZ001>010-012>015-112-114-115-210600-
PANHANDLE FLORIDA
  
CITY           SKY/WX    TMP DP  RH WIND       PRES   REMARKS
PENSACOLA      FAIR      76  75  97 CALM      30.04F                  
PENSACOLA NAS  FAIR      75  74  96 CALM      30.04S                  
MILTON NAS     FAIR      72  72 100 CALM        N/A                   
CRESTVIEW      FAIR      73  70  90 CALM      30.06F                  
DUKE FIELD     FAIR      73  73  98 CALM      30.05F                  
VALPARAISO     FAIR      76  73  91 CALM      30.04F                  
MARY ESTHER    CLEAR     75  72  92 CALM      30.03F                  
TRI COUNTY     FAIR      73  72  96 CALM      30.06F                  
PANAMA CITY    FAIR      74  71  91 CALM      30.05F                  
TYNDALL AFB    FAIR      76  72  88 CALM      30.04F                  
APALACHICOLA   FAIR      75  71  87 NW3       30.05S                  

STATION/POSITION SKY/WX   TEMP    WIND        PRES    WAVE   SWELL
                          AIR SEA DIR/SP/G            HT/PER HT/PER
                          (F)     (DEG/KT/KT) (MB)    (FT/S) (FT/S)
30.1N   87.6W              82 86  160/ 10/ 12 1017.4S   1/ 4   2/ 5
29.2N   88.2W              82 84  150/  6/  8 1017.5F   1/ 6   2/ 6
28.8N   86.0W                 86  110/  4/  6 1017.4F   1/ 4   2/ 4
PANAMA CITY BEAC           82 86  230/  5/  7 1018.2F
TOWER C                    82     310/  4/  5 1017.7S
28.5N   84.5W              83      90/  8/ 14 1017.7F   1/ 4

$$
FLZ011-016>038-118-127-128-134-139-239-210600-
NORTH FLORIDA
  
CITY           SKY/WX    TMP DP  RH WIND       PRES   REMARKS
MARIANNA       FAIR      76  75  97 CALM      30.05F                  
TALLAHASSEE    MOCLDY    76  74  93 CALM      30.06R                  
PERRY          FAIR      77  76  97 CALM      30.06F FOG              
LIVE OAK       CLEAR     75  75 100 CALM      30.06F                  
CROSS CITY     FAIR      75  74  96 E3        30.07R                  
LAKE CITY      FAIR      72  72 100 CALM      30.07F                  
GAINESVILLE    FAIR      73  71  93 SW3       30.11R                  
WILLISTON      FAIR      73  73  99 E3        30.07F                  
PALATKA        CLOUDY    72  72 100 CALM      30.09S                  
MAYPORT NAS    FAIR      78  72  81 CALM      30.06S                  
JACKSONVILLE   FAIR      72  71  97 SW3       30.06S                  
JAX NAS        FAIR      79  73  82 S5        30.08S                  
JAX CECIL      FAIR      73  72  94 S5        30.07F                  
FERNANDINA BEA FAIR      75  73  95 CALM      30.05F                  
ST AUGUSTINE   FAIR      77  73  87 MISG      30.09R                  
PALM COAST     FAIR      74  73  95 CALM      30.08S                  

STATION/POSITION SKY/WX   TEMP    WIND        PRES    WAVE   SWELL
                          AIR SEA DIR/SP/G            HT/PER HT/PER
                          (F)     (DEG/KT/KT) (MB)    (FT/S) (FT/S)
SHELL POINT      NOT AVBL
KEATON BEACH               76      60/  5/  5 1017.8S
CEDAR KEY                  83     170/  6/  7 1018.1F
FERNANDINA                 81 83   CALM  /  1 1018.5F
30.7N   81.3W                 83                N/A     2/ 8
MAYPORT                    78 81   70/  2/  3 1018.5R
31.4N   80.9W              83 83  200/ 12/ 14 1017.6R   3/ 4   2/ 9
ST AUGUSTINE               78 77  260/  5/  6 1018.8R

$$
FLZ040-043>046-052-053-057-058-063-144-210600-
INTERIOR CENTRAL FLORIDA
  
CITY           SKY/WX    TMP DP  RH WIND       PRES   REMARKS
OCALA          FAIR      73  72  96 CALM      30.09F                  
LEESBURG       FAIR      77  73  87 CALM      30.09S                  
SANFORD        FAIR      80  75  84 CALM      30.07F                  
ORLANDO EXEC   FAIR      80  75  84 E5        30.07F                  
ORLANDO INTL   CLOUDY    79  75  87 E5        30.07F                  
KISSIMMEE      FAIR      79  76  90 CALM      30.08F                  
WINTER HAVEN   FAIR      79  75  87 E3        30.08F                  
LAKELAND       FAIR      75  72  88 CALM      30.08S                  
BARTOW         FAIR      75  75 100 CALM      30.07S                  
SEBRING        FAIR      76  74  96 NE3       30.07S                  
OKEECHOBEE     FAIR      73  72  94 CALM      30.07F                  

$$
FLZ041-047-054-059-064-141-147-210600-
EAST CENTRAL FLORIDA
  
CITY           SKY/WX    TMP DP  RH WIND       PRES   REMARKS
DAYTONA BEACH  FAIR      78  77  96 S3        30.08S                  
DELAND         FAIR      77  73  88 CALM      30.08F                  
JFK SPACE CTR  CLEAR     79  67  67 SE3       30.07F                  
CAPE CANAVERAL CLEAR     77  56  48 SE7       30.06F                  
PATRICK AFB    FAIR      82  81  99 SE8       30.06F                  
MELBOURNE      FAIR      83  76  79 SE9       30.06F                  
VERO BEACH     FAIR      77  74  90 CALM      30.07F                  
FT PIERCE      FAIR      76  73  91 CALM      30.07F                  
STUART         FAIR      79  72  78 CALM      30.08F                  

STATION/POSITION SKY/WX   TEMP    WIND        PRES    WAVE   SWELL
                          AIR SEA DIR/SP/G            HT/PER HT/PER
                          (F)     (DEG/KT/KT) (MB)    (FT/S) (FT/S)
28.5N   80.2W              83 83  130/  8/ 10 1018.3F   1/ 8   2/ 8
28.9N   78.5W              85 86  140/  8/ 10   N/A     2/ 8   2/ 8
TRIDENT PIER               81 84  120/  4/  7 1019.8F
28.4N   80.5W                 82                N/A     2/ 8
27.5N   80.2W                 83                N/A     1/ 8

$$
FLZ050-056-061-142-242-148-248-149-249-151-251-155-255-
160-260-210600-
WEST CENTRAL FLORIDA
  
CITY           SKY/WX    TMP DP  RH WIND       PRES   REMARKS
CRYSTAL RIVER  FAIR      72  72 100 CALM      30.08F                  
INVERNESS      FAIR      72  72 100 SE3       30.09S                  
BROOKSVILLE    FAIR      74  72  93 CALM      30.09F                  
CLEARWATER AIR FAIR      77  73  88 E5        30.06F                  
ST PETE CLEARW FAIR      77  73  87 E5        30.06F                  
TAMPA INTL     MOCLDY    78  71  79 E5        30.07F                  
TAMPA EXEC     FAIR      73  72  94 CALM      30.08S                  
PLANT CITY     FAIR     N/A N/A N/A MISG      30.09F                  
MACDILL AFB    MOCLDY    75  71  88 CALM      30.06F                  
PETER O KNIGHT CLOUDY    77  75  94 CALM      30.07F                  
ST PETERSBURG  FAIR      80  74  81 N8        30.04F                  
SARASOTA       FAIR      75  71  87 SE5       30.04S                  
VENICE         FAIR      75  73  94 E7        30.07R                  

STATION/POSITION SKY/WX   TEMP    WIND        PRES    WAVE   SWELL
                          AIR SEA DIR/SP/G            HT/PER HT/PER
                          (F)     (DEG/KT/KT) (MB)    (FT/S) (FT/S)
27.3N   84.2W                 86                N/A     1/ 4
CLEARWATER BEACH           80 89   90/  6/  8 1018.3F
MIDDLE TAMPA BAY           79      50/  6/  7 1018.1F
VENICE                     75 87   70/  5/  6 1017.8S

$$
FLZ066-069-070-075>078-162-262-165-265-210600-
SOUTHWEST FLORIDA AND KEYS
  
CITY           SKY/WX    TMP DP  RH WIND       PRES   REMARKS
PUNTA GORDA    FAIR      74  73  97 E3        30.08R                  
FT MYERS       FAIR      74  71  91 E6        30.05S                  
SOUTHWEST INTL FAIR      75  72  90 E5        30.06S                  
MARCO ISLAND   FAIR      77  76  96 MISG      30.07S                  
IMMOKALEE      MOCLDY    75  73  94 CALM      30.05S                  
MARATHON       FAIR      83  73  72 SE10G20   30.04F                  
KEY WEST NAS   FAIR      84  74  71 SE16      30.03F                  
KEY WEST INTL  FAIR      83  73  72 SE14      30.04S                  

STATION/POSITION SKY/WX   TEMP    WIND        PRES    WAVE   SWELL
                          AIR SEA DIR/SP/G            HT/PER HT/PER
                          (F)     (DEG/KT/KT) (MB)    (FT/S) (FT/S)
NAPLES                     77 86              1017.8F
26.0N   85.6W              85 86  110/ 10/ 12 1017.0F   2/ 5   2/ 5
DRY TORTUGAS               84     120/  9/ 11 1017.2R
SAND KEY                   84     120/ 17/ 20 1015.8F
SOMBRERO KEY               81     140/ 17/ 21 1017.3F
LONG KEY                   83                 1016.2

$$
FLZ067-068-071>074-168-172>174-210600-
SOUTHEAST FLORIDA 
  
CITY           SKY/WX    TMP DP  RH WIND       PRES   REMARKS
W PALM BEACH   FAIR      82  75  79 SE5       30.07F                  
FT LAUDER-EXEC LGT RAIN  80  73  79 E6        30.06F                  
FT LAUDERDALE  FAIR      83  77  82 SE8       30.05F                  
POMPANO BEACH  FAIR      84  74  71 SE7       30.06F                  
PEMBROKE PINES FAIR      82  76  81 CALM      30.07F                  
OPA LOCKA      FAIR      81  76  84 SE5       30.07S                  
MIAMI          FAIR      84  75  74 E8        30.06S                  
WEST KENDALL   FAIR      83  75  77 SE8       30.05S                  
HOMESTEAD      TSTM      75  73  94 S12G21    30.06R FOG              

STATION/POSITION SKY/WX   TEMP    WIND        PRES    WAVE   SWELL
                          AIR SEA DIR/SP/G            HT/PER HT/PER
                          (F)     (DEG/KT/KT) (MB)    (FT/S) (FT/S)
PORT EVERGLADES            84     110/  2/  6 1017.8F
VIRGINIA KEY               84 88  110/ 10/ 13 1017.5S
LAKE WORTH                 83 84  140/  7/  8 1019.4F
FOWEY ROCKS                83 85  140/ 12/ 13 1017.8F
SETTLEMENT POINT           83     140/  5/  6 1018.5F

$$